COSMOS 2251 DEB, 34910

Orbit data source: Space-Track

COSMOS 2251 DEB, 34910 is space debris in LEO originally from a launch on Wed, 16 Jun 1993 UTC launched from the Plesetsk Missile And Space Complex (PKMTR). The debris from Iridium 33, an American commercial communications satellite, has been tracked extensively since its accidental collision with the defunct Russian satellite Cosmos 2251 in 2009. This event, occurring at high speed in low Earth orbit (LEO), generated thousands of pieces of space debris, significantly increasing the risk of further collisions. The Iridium 33 debris cloud has impacted space traffic management and orbital debris mitigation strategies, making it a subject of ongoing study in space situational awareness.

Loading next visibility...
Identifier
34910, 1993-036ADF
Orbit
LEO
Country
Flag of CISCIS
Related business
Manufacturer
Unknown
Mission
Spacecraft
Bus & Motor
Unknown
Mass
Unknown
Launch date (UTC)
1993-06-16 (33 years ago)
Launch vehicle
Unknown
Launch site
Plesetsk Missile And Space Complex (PKMTR)
Object type
Payload
Rocket body
Debris
Shape & HBR
Unknown shape, 0.1 m
Radar Cross Section
Medium (>0.1 m² and <1 m²)

Expand to show TLE details & history
Last TLE update: 2 days ago

TLE from 2 days ago
0 COSMOS 2251 DEB
1 34910U 93036ADF 26256.34922152  .00000186  00000-0  20576-3 0  9995
2 34910  73.8756  27.9014 0466058  99.7412 294.1613 13.38028262851970
Epoch: 2026-09-13T08:22Z
TLE epoch observation values (Epoch: 2026-09-13T08:22:52.739Z)
Latitude
27.7264°
Longitude
-81.46947°
Altitude
990.567 km
Speed
7.422 km/s
True Right ascension
02h 26m 22s
True Declination
27° 35' 22"
Sunlit
Object was in full shadow at epoch
Visualization orbit readout
Latitude
Unknown
Longitude
Unknown
Altitude
Unknown
Speed
Unknown
Apparent Right ascension
Unknown
Apparent Declination
Unknown
Sunlit
N/A
Visualization observer readout
Local Sidereal Time
13:58:23
Azimuth
Unknown
Elevation
Unknown
Doppler factor
Unknown
Orbital elements
Apogee altitude
1,463.567 km
Perigee altitude
765.178 km
Semi-major axis
7,492.51 km
Eccentricity
0.04661
Inclination
73.8756°
RAAN
27.9014°
Arg. of periapsis
99.7412°
True anomaly
289.17593°
Mean anomaly
294.1613°
Eccentric anomaly
291.67988°
Mean motion
3.34659 °/min
Orbital period
107.57 mins
BSTAR
0.00020576
Loading maneuver chart data...
Computing Atmospheric mass density...

Documentation

Showing up to 5 results
|